Time,TemperatureF,DewpointF,PressureIn,WindDirection,WindDirectionDegrees,WindSpeedMPH,WindSpeedGustMPH,Humidity,HourlyPrecipIn,Conditions,Clouds,dailyrainin,SolarRadiationWatts/m^2,SoftwareType,DateUTC
2013-04-23 00:01:00,60.0,59.0,-100.00,NNE,13,4.0,6.0,98,0.00,,,0.00,0.000000,,2013-04-23 10:01:00,
2013-04-23 00:33:00,60.0,59.0,-100.00,NNE,13,4.0,6.0,98,0.00,,,0.00,0.000000,,2013-04-23 10:33:00,
2013-04-23 00:42:00,60.0,59.0,-100.00,NNE,13,4.0,6.0,98,0.00,,,0.00,0.000000,,2013-04-23 10:42:00,
2013-04-23 00:52:00,60.0,59.0,-100.00,NNE,13,4.0,6.0,98,0.00,,,0.00,0.000000,,2013-04-23 10:52:00,
2013-04-23 01:01:00,60.0,59.0,-100.00,North,357,5.0,6.0,98,0.00,,,0.00,0.000000,,2013-04-23 11:01:00,
2013-04-23 01:22:00,60.0,59.0,-100.00,North,357,5.0,6.0,98,0.00,,,0.00,0.000000,,2013-04-23 11:22:00,
2013-04-23 01:32:00,60.0,59.0,-100.00,North,357,5.0,6.0,98,0.00,,,0.00,0.000000,,2013-04-23 11:32:00,
2013-04-23 01:43:00,60.0,59.0,-100.00,North,357,5.0,6.0,98,0.00,,,0.00,0.000000,,2013-04-23 11:43:00,
2013-04-23 01:53:00,60.0,59.0,-100.00,North,357,5.0,6.0,98,0.00,,,0.00,0.000000,,2013-04-23 11:53:00,
2013-04-23 02:01:00,60.0,58.0,-100.00,NNW,343,6.0,9.0,93,0.00,,,0.00,0.000000,,2013-04-23 12:01:00,
2013-04-23 02:32:00,60.0,58.0,-100.00,NNW,343,6.0,9.0,93,0.00,,,0.00,0.000000,,2013-04-23 12:32:00,
2013-04-23 02:42:00,60.0,58.0,-100.00,NNW,343,6.0,9.0,93,0.00,,,0.00,0.000000,,2013-04-23 12:42:00,
2013-04-23 02:52:00,60.0,58.0,-100.00,NNW,343,6.0,9.0,93,0.00,,,0.00,0.000000,,2013-04-23 12:52:00,
2013-04-23 03:01:00,60.0,56.0,-100.00,NNW,348,5.0,9.0,88,0.00,,,0.00,0.000000,,2013-04-23 13:01:00,
2013-04-23 03:22:00,60.0,56.0,-100.00,NNW,348,5.0,9.0,88,0.00,,,0.00,0.000000,,2013-04-23 13:22:00,
2013-04-23 03:32:00,60.0,56.0,-100.00,NNW,348,5.0,9.0,88,0.00,,,0.00,0.000000,,2013-04-23 13:32:00,
2013-04-23 03:42:00,60.0,56.0,-100.00,NNW,348,5.0,9.0,88,0.00,,,0.00,0.000000,,2013-04-23 13:42:00,
2013-04-23 03:52:00,60.0,56.0,-100.00,NNW,348,5.0,9.0,88,0.00,,,0.00,0.000000,,2013-04-23 13:52:00,
2013-04-23 04:01:00,60.0,59.0,-100.00,NNE,14,3.0,5.0,95,0.04,,,0.04,0.000000,,2013-04-23 14:01:00,
2013-04-23 04:32:00,60.0,59.0,-100.00,NNE,14,3.0,5.0,95,0.04,,,0.04,0.000000,,2013-04-23 14:32:00,
2013-04-23 04:42:00,60.0,59.0,-100.00,NNE,14,3.0,5.0,95,0.04,,,0.04,0.000000,,2013-04-23 14:42:00,
2013-04-23 04:52:00,60.0,59.0,-100.00,NNE,14,3.0,5.0,95,0.04,,,0.04,0.000000,,2013-04-23 14:52:00,
2013-04-23 05:01:00,60.0,59.0,-100.00,North,351,3.0,4.0,95,0.00,,,0.04,0.000000,,2013-04-23 15:01:00,
2013-04-23 05:32:00,60.0,59.0,-100.00,North,351,3.0,4.0,95,0.00,,,0.04,0.000000,,2013-04-23 15:32:00,
2013-04-23 05:43:00,60.0,59.0,-100.00,North,351,3.0,4.0,95,0.00,,,0.04,0.000000,,2013-04-23 15:43:00,
2013-04-23 05:53:00,60.0,59.0,-100.00,North,351,3.0,4.0,95,0.00,,,0.04,0.000000,,2013-04-23 15:53:00,
2013-04-23 06:01:00,60.0,59.0,-100.00,North,5,2.0,4.0,95,0.00,,,0.04,0.000000,,2013-04-23 16:01:00,
2013-04-23 06:34:00,60.0,59.0,-100.00,North,5,2.0,4.0,95,0.00,,,0.04,0.000000,,2013-04-23 16:34:00,
2013-04-23 06:43:00,60.0,59.0,-100.00,North,5,2.0,4.0,95,0.00,,,0.04,0.000000,,2013-04-23 16:43:00,
2013-04-23 06:52:00,60.0,59.0,-100.00,North,5,2.0,4.0,95,0.00,,,0.04,0.000000,,2013-04-23 16:52:00,
2013-04-23 07:01:00,62.0,60.0,-100.00,NNE,25,0.0,5.0,92,0.01,,,0.05,22.000000,,2013-04-23 17:01:00,
2013-04-23 07:33:00,62.0,60.0,-100.00,NNE,25,0.0,5.0,92,0.01,,,0.05,22.000000,,2013-04-23 17:33:00,
2013-04-23 07:43:00,62.0,60.0,-100.00,NNE,25,0.0,5.0,92,0.01,,,0.05,22.000000,,2013-04-23 17:43:00,
2013-04-23 07:53:00,62.0,60.0,-100.00,NNE,25,0.0,5.0,92,0.01,,,0.05,22.000000,,2013-04-23 17:53:00,
2013-04-23 08:01:00,67.0,62.0,-100.00,NW,326,1.0,5.0,85,0.01,,,0.06,156.000000,,2013-04-23 18:01:00,
2013-04-23 08:22:00,67.0,62.0,-100.00,NW,326,1.0,5.0,85,0.01,,,0.06,156.000000,,2013-04-23 18:22:00,
2013-04-23 08:32:00,67.0,62.0,-100.00,NW,326,1.0,5.0,85,0.01,,,0.06,156.000000,,2013-04-23 18:32:00,
2013-04-23 08:42:00,67.0,62.0,-100.00,NW,326,1.0,5.0,85,0.01,,,0.06,156.000000,,2013-04-23 18:42:00,
2013-04-23 08:52:00,67.0,62.0,-100.00,NW,326,1.0,5.0,85,0.01,,,0.06,156.000000,,2013-04-23 18:52:00,
2013-04-23 09:01:00,67.0,61.0,-100.00,SSW,195,1.0,4.0,80,0.00,,,0.06,295.000000,,2013-04-23 19:01:00,
2013-04-23 09:22:00,67.0,61.0,-100.00,SSW,195,1.0,4.0,80,0.00,,,0.06,295.000000,,2013-04-23 19:22:00,
2013-04-23 09:32:00,67.0,61.0,-100.00,SSW,195,1.0,4.0,80,0.00,,,0.06,295.000000,,2013-04-23 19:32:00,
2013-04-23 09:42:00,67.0,61.0,-100.00,SSW,195,1.0,4.0,80,0.00,,,0.06,295.000000,,2013-04-23 19:42:00,
2013-04-23 09:52:00,67.0,61.0,-100.00,SSW,195,1.0,4.0,80,0.00,,,0.06,295.000000,,2013-04-23 19:52:00,
2013-04-23 10:01:00,69.0,65.0,-100.00,SE,143,8.0,14.0,87,0.00,,,0.06,696.000000,,2013-04-23 20:01:00,
2013-04-23 10:32:00,69.0,65.0,-100.00,SE,143,8.0,14.0,87,0.00,,,0.06,696.000000,,2013-04-23 20:32:00,
2013-04-23 10:42:00,69.0,65.0,-100.00,SE,143,8.0,14.0,87,0.00,,,0.06,696.000000,,2013-04-23 20:42:00,
2013-04-23 10:52:00,69.0,65.0,-100.00,SE,143,8.0,14.0,87,0.00,,,0.06,696.000000,,2013-04-23 20:52:00,
2013-04-23 11:01:00,70.0,64.0,-100.00,SE,135,8.0,14.0,81,0.00,,,0.06,787.000000,,2013-04-23 21:01:00,
2013-04-23 11:33:00,70.0,64.0,-100.00,SE,135,8.0,14.0,81,0.00,,,0.06,787.000000,,2013-04-23 21:33:00,
2013-04-23 11:43:00,70.0,64.0,-100.00,SE,135,8.0,14.0,81,0.00,,,0.06,787.000000,,2013-04-23 21:43:00,
2013-04-23 11:52:00,70.0,64.0,-100.00,SE,135,8.0,14.0,81,0.00,,,0.06,787.000000,,2013-04-23 21:52:00,
2013-04-23 12:01:00,71.0,65.0,-100.00,SE,132,8.0,14.0,81,0.00,,,0.06,766.000000,,2013-04-23 22:01:00,
2013-04-23 12:23:00,71.0,65.0,-100.00,SE,132,8.0,14.0,81,0.00,,,0.06,766.000000,,2013-04-23 22:23:00,
2013-04-23 12:33:00,71.0,65.0,-100.00,SE,132,8.0,14.0,81,0.00,,,0.06,766.000000,,2013-04-23 22:33:00,
2013-04-23 12:42:00,71.0,65.0,-100.00,SE,132,8.0,14.0,81,0.00,,,0.06,766.000000,,2013-04-23 22:42:00,
2013-04-23 12:52:00,71.0,65.0,-100.00,SE,132,8.0,14.0,81,0.00,,,0.06,766.000000,,2013-04-23 22:52:00,
2013-04-23 13:01:00,65.0,64.0,-100.00,SE,144,7.0,13.0,96,0.00,,,0.06,287.000000,,2013-04-23 23:01:00,
2013-04-23 13:22:00,65.0,64.0,-100.00,SE,144,7.0,13.0,96,0.00,,,0.06,287.000000,,2013-04-23 23:22:00,
2013-04-23 13:32:00,65.0,64.0,-100.00,SE,144,7.0,13.0,96,0.00,,,0.06,287.000000,,2013-04-23 23:32:00,
2013-04-23 13:42:00,65.0,64.0,-100.00,SE,144,7.0,13.0,96,0.00,,,0.06,287.000000,,2013-04-23 23:42:00,
2013-04-23 13:52:00,65.0,64.0,-100.00,SE,144,7.0,13.0,96,0.00,,,0.06,287.000000,,2013-04-23 23:52:00,
2013-04-23 14:01:00,65.0,64.0,-100.00,SE,139,8.0,11.0,97,0.00,,,0.06,166.000000,,2013-04-24 00:01:00,
2013-04-23 14:22:00,65.0,64.0,-100.00,SE,139,8.0,11.0,97,0.00,,,0.06,166.000000,,2013-04-24 00:22:00,
2013-04-23 14:32:00,65.0,64.0,-100.00,SE,139,8.0,11.0,97,0.00,,,0.06,166.000000,,2013-04-24 00:32:00,
2013-04-23 14:42:00,65.0,64.0,-100.00,SE,139,8.0,11.0,97,0.00,,,0.06,166.000000,,2013-04-24 00:42:00,
2013-04-23 14:52:00,65.0,64.0,-100.00,SE,139,8.0,11.0,97,0.00,,,0.06,166.000000,,2013-04-24 00:52:00,
2013-04-23 15:01:00,64.0,64.0,-100.00,ESE,116,6.0,12.0,99,0.02,,,0.08,107.000000,,2013-04-24 01:01:00,
2013-04-23 15:21:00,64.0,64.0,-100.00,ESE,116,6.0,12.0,99,0.02,,,0.08,107.000000,,2013-04-24 01:21:00,
2013-04-23 15:32:00,64.0,64.0,-100.00,ESE,116,6.0,12.0,99,0.02,,,0.08,107.000000,,2013-04-24 01:32:00,
2013-04-23 15:42:00,64.0,64.0,-100.00,ESE,116,6.0,12.0,99,0.02,,,0.08,107.000000,,2013-04-24 01:42:00,
2013-04-23 15:52:00,64.0,64.0,-100.00,ESE,116,6.0,12.0,99,0.02,,,0.08,107.000000,,2013-04-24 01:52:00,
2013-04-23 16:42:00,63.0,63.0,-100.00,ESE,123,7.0,11.0,99,0.01,,,0.09,69.000000,,2013-04-24 02:42:00,
2013-04-23 16:49:00,63.0,63.0,-100.00,ESE,123,7.0,11.0,99,0.01,,,0.09,69.000000,,2013-04-24 02:49:00,
2013-04-23 17:01:00,63.0,63.0,-100.00,ESE,113,6.0,10.0,99,0.01,,,0.10,45.000000,,2013-04-24 03:01:00,
2013-04-23 17:43:00,63.0,63.0,-100.00,ESE,113,6.0,10.0,99,0.01,,,0.10,45.000000,,2013-04-24 03:43:00,
2013-04-23 17:53:00,63.0,63.0,-100.00,ESE,113,6.0,10.0,99,0.01,,,0.10,45.000000,,2013-04-24 03:53:00,
2013-04-23 17:58:00,63.0,63.0,-100.00,ESE,113,6.0,10.0,99,0.01,,,0.10,45.000000,,2013-04-24 03:58:00,
2013-04-23 18:01:00,62.0,62.0,-100.00,East,88,2.0,8.0,100,0.01,,,0.11,33.000000,,2013-04-24 04:01:00,
2013-04-23 18:33:00,62.0,62.0,-100.00,East,88,2.0,8.0,100,0.01,,,0.11,33.000000,,2013-04-24 04:33:00,
2013-04-23 18:43:00,62.0,62.0,-100.00,East,88,2.0,8.0,100,0.01,,,0.11,33.000000,,2013-04-24 04:43:00,
2013-04-23 18:52:00,62.0,62.0,-100.00,East,88,2.0,8.0,100,0.01,,,0.11,33.000000,,2013-04-24 04:52:00,
2013-04-23 19:01:00,62.0,62.0,-100.00,East,90,1.0,5.0,100,0.00,,,0.11,3.000000,,2013-04-24 05:01:00,
2013-04-23 19:32:00,62.0,62.0,-100.00,East,90,1.0,5.0,100,0.00,,,0.11,3.000000,,2013-04-24 05:32:00,
2013-04-23 19:42:00,62.0,62.0,-100.00,East,90,1.0,5.0,100,0.00,,,0.11,3.000000,,2013-04-24 05:42:00,
2013-04-23 19:52:00,62.0,62.0,-100.00,East,90,1.0,5.0,100,0.00,,,0.11,3.000000,,2013-04-24 05:52:00,
2013-04-23 20:01:00,62.0,62.0,-100.00,NE,56,1.0,4.0,100,0.00,,,0.11,0.000000,,2013-04-24 06:01:00,
2013-04-23 20:33:00,62.0,62.0,-100.00,NE,56,1.0,4.0,100,0.00,,,0.11,0.000000,,2013-04-24 06:33:00,
2013-04-23 20:42:00,62.0,62.0,-100.00,NE,56,1.0,4.0,100,0.00,,,0.11,0.000000,,2013-04-24 06:42:00,
2013-04-23 20:52:00,62.0,62.0,-100.00,NE,56,1.0,4.0,100,0.00,,,0.11,0.000000,,2013-04-24 06:52:00,
2013-04-23 21:01:00,62.0,62.0,-100.00,SSE,155,2.0,5.0,99,0.00,,,0.11,0.000000,,2013-04-24 07:01:00,
2013-04-23 21:32:00,62.0,62.0,-100.00,SSE,155,2.0,5.0,99,0.00,,,0.11,0.000000,,2013-04-24 07:32:00,
2013-04-23 21:42:00,62.0,62.0,-100.00,SSE,155,2.0,5.0,99,0.00,,,0.11,0.000000,,2013-04-24 07:42:00,
2013-04-23 21:52:00,62.0,62.0,-100.00,SSE,155,2.0,5.0,99,0.00,,,0.11,0.000000,,2013-04-24 07:52:00,
2013-04-23 22:01:00,62.0,62.0,-100.00,NW,310,0.0,1.0,99,0.00,,,0.11,0.000000,,2013-04-24 08:01:00,
2013-04-23 22:33:00,62.0,62.0,-100.00,NW,310,0.0,1.0,99,0.00,,,0.11,0.000000,,2013-04-24 08:33:00,
2013-04-23 22:42:00,62.0,62.0,-100.00,NW,310,0.0,1.0,99,0.00,,,0.11,0.000000,,2013-04-24 08:42:00,
2013-04-23 22:52:00,62.0,62.0,-100.00,NW,310,0.0,1.0,99,0.00,,,0.11,0.000000,,2013-04-24 08:52:00,
2013-04-23 23:01:00,63.0,63.0,-100.00,ENE,71,4.0,6.0,99,0.01,,,0.12,0.000000,,2013-04-24 09:01:00,
2013-04-23 23:21:00,63.0,63.0,-100.00,ENE,71,4.0,6.0,99,0.01,,,0.12,0.000000,,2013-04-24 09:21:00,
2013-04-23 23:33:00,63.0,63.0,-100.00,ENE,71,4.0,6.0,99,0.01,,,0.12,0.000000,,2013-04-24 09:33:00,
2013-04-23 23:42:00,63.0,63.0,-100.00,ENE,71,4.0,6.0,99,0.01,,,0.12,0.000000,,2013-04-24 09:42:00,
2013-04-23 23:53:00,63.0,63.0,-100.00,ENE,71,4.0,6.0,99,0.01,,,0.12,0.000000,,2013-04-24 09:53:00,